QPF
0.01 0.00 0.00 0.00 0.01 0.01 0.02 0.01 0.01 0.01 0.00 0.00 0.00 0.00 0.00 0.00 0.00 0.00 0.00 0.00 0.01 0.02 0.02 0.03 0.04 0.05 0.06 0.08 0.09 0.09 0.08 0.08 0.10 0.10 0.09 0.09 0.10 0.08 0.06 0.04 0.04 0.04 0.03 0.02
0.01 0.00 0.00 0.00 0.01 0.01 0.01 0.01 0.01 0.01 0.01 0.00 0.00 0.00 0.00 0.00 0.00 0.00 0.01 0.01 0.01 0.02 0.03 0.04 0.04 0.05 0.06 0.09 0.10 0.11 0.11 0.10 0.10 0.09 0.08 0.08 0.08 0.09 0.08 0.06 0.04 0.04 0.04 0.04
0.01 0.01 0.00 0.00 0.00 0.01 0.01 0.01 0.01 0.01 0.01 0.00 0.00 0.00 0.00 0.00 0.00 0.01 0.01 0.01 0.01 0.02 0.03 0.04 0.05 0.05 0.06 0.08 0.10 0.11 0.13 0.11 0.11 0.10 0.09 0.09 0.07 0.07 0.08 0.07 0.05 0.04 0.03 0.02
0.01 0.01 0.01 0.01 0.01 0.01 0.01 0.01 0.00 0.00 0.00 0.00 0.00 0.00 0.00 0.00 0.00 0.01 0.01 0.01 0.01 0.02 0.03 0.03 0.05 0.07 0.05 0.06 0.07 0.11 0.14 0.14 0.12 0.10 0.08 0.07 0.07 0.07 0.05 0.04 0.05 0.04 0.03 0.02
0.02 0.01 0.01 0.01 0.01 0.02 0.02 0.01 0.00 0.00 0.00 0.00 0.00 0.00 0.00 0.00 0.00 0.01 0.02 0.02 0.02 0.02 0.02 0.03 0.05 0.06 0.05 0.05 0.06 0.10 0.13 0.14 0.13 0.10 0.07 0.06 0.06 0.07 0.05 0.04 0.03 0.03 0.02 0.01
0.03 0.02 0.01 0.00 0.01 0.01 0.01 0.00 0.00 0.00 0.00 0.00 0.00 0.00 0.00 0.00 0.01 0.02 0.02 0.02 0.02 0.02 0.02 0.03 0.03 0.03 0.04 0.05 0.06 0.09 0.12 0.13 0.11 0.09 0.08 0.08 0.06 0.05 0.04 0.04 0.03 0.02 0.01 0.01
0.02 0.01 0.01 0.01 0.01 0.01 0.01 0.00 0.00 0.00 0.00 0.00 0.00 0.00 0.00 0.01 0.01 0.02 0.01 0.01 0.02 0.02 0.03 0.04 0.04 0.04 0.05 0.05 0.07 0.08 0.09 0.10 0.09 0.08 0.07 0.07 0.06 0.04 0.03 0.03 0.03 0.02 0.03 0.02
0.01 0.01 0.01 0.01 0.01 0.02 0.01 0.00 0.00 0.00 0.00 0.00 0.00 0.00 0.01 0.01 0.01 0.01 0.01 0.02 0.02 0.02 0.04 0.05 0.06 0.06 0.06 0.06 0.07 0.06 0.07 0.08 0.07 0.06 0.06 0.05 0.04 0.03 0.02 0.02 0.02 0.02 0.02 0.02
0.02 0.02 0.02 0.01 0.01 0.00 0.00 0.00 0.00 0.00 0.00 0.00 0.00 0.00 0.01 0.01 0.02 0.02 0.02 0.03 0.03 0.04 0.05 0.06 0.06 0.06 0.06 0.06 0.07 0.06 0.06 0.07 0.06 0.05 0.03 0.03 0.03 0.02 0.01 0.01 0.00 0.01 0.01 0.01
0.03 0.02 0.01 0.01 0.01 0.00 0.00 0.00 0.00 0.00 0.00 0.00 0.00 0.01 0.01 0.02 0.02 0.02 0.03 0.04 0.04 0.04 0.04 0.04 0.04 0.04 0.04 0.04 0.05 0.05 0.05 0.05 0.05 0.04 0.03 0.02 0.02 0.01 0.01 0.00 0.00 0.00 0.01 0.01
0.02 0.01 0.01 0.01 0.00 0.00 0.00 0.00 0.00 0.00 0.01 0.00 0.00 0.01 0.02 0.02 0.02 0.03 0.03 0.04 0.04 0.04 0.04 0.03 0.03 0.03 0.02 0.02 0.02 0.02 0.03 0.04 0.03 0.03 0.02 0.01 0.01 0.01 0.01 0.01 0.00 0.00 0.00 0.00
0.01 0.01 0.01 0.00 0.00 0.00 0.00 0.00 0.00 0.00 0.00 0.00 0.00 0.01 0.02 0.02 0.01 0.02 0.03 0.03 0.03 0.03 0.03 0.03 0.03 0.02 0.01 0.01 0.01 0.02 0.02 0.02 0.02 0.02 0.01 0.01 0.01 0.00 0.00 0.00 0.00 0.00 0.00 0.00
0.02 0.02 0.01 0.01 0.00 0.00 0.00 0.00 0.00 0.00 0.00 0.01 0.01 0.01 0.01 0.01 0.01 0.01 0.01 0.02 0.02 0.02 0.02 0.02 0.02 0.01 0.01 0.01 0.01 0.01 0.01 0.00 0.00 0.00 0.00 0.00 0.00 0.00 0.00 0.00 0.00 0.00 0.00 0.00
0.01 0.01 0.01 0.00 0.00 0.00 0.00 0.00 0.00 0.00 0.00 0.01 0.01 0.01 0.01 0.01 0.00 0.01 0.01 0.01 0.01 0.02 0.02 0.02 0.01 0.01 0.01 0.01 0.01 0.01 0.00 0.00 0.00 0.00 0.00 0.00 0.00 0.00 0.00 0.00 0.00 0.00 0.00 0.00
0.01 0.01 0.00 0.00 0.00 0.00 0.01 0.00 0.00 0.00 0.01 0.01 0.01 0.02 0.01 0.01 0.01 0.01 0.01 0.01 0.01 0.02 0.02 0.01 0.01 0.01 0.00 0.00 0.00 0.00 0.00 0.00 0.00 0.00 0.00 0.00 0.00 0.00 0.00 0.00 0.00 0.00 0.00 0.00
0.01 0.00 0.00 0.00 0.00 0.00 0.00 0.00 0.00 0.01 0.01 0.01 0.01 0.01 0.01 0.01 0.01 0.01 0.01 0.01 0.01 0.01 0.01 0.01 0.01 0.01 0.00 0.00 0.00 0.00 0.00 0.00 0.00 0.00 0.00 0.00 0.00 0.00 0.00 0.00 0.00 0.00 0.00 0.00
0.00 0.00 0.00 0.00 0.00 0.00 0.00 0.00 0.00 0.00 0.01 0.01 0.01 0.01 0.01 0.01 0.01 0.01 0.01 0.01 0.01 0.01 0.01 0.00 0.00 0.00 0.00 0.00 0.00 0.00 0.00 0.00 0.00 0.00 0.00 0.00 0.00 0.00 0.00 0.00 0.00 0.00 0.00 0.00
0.00 0.00 0.00 0.00 0.00 0.00 0.00 0.00 0.00 0.00 0.00 0.00 0.00 0.00 0.00 0.00 0.00 0.01 0.01 0.00 0.00 0.01 0.01 0.01 0.01 0.01 0.00 0.00 0.00 0.00 0.00 0.00 0.00 0.00 0.00 0.00 0.00 0.00 0.00 0.00 0.00 0.00 0.00 0.00
0.00 0.00 0.00 0.00 0.00 0.00 0.00 0.00 0.00 0.00 0.00 0.00 0.00 0.00 0.00 0.00 0.00 0.00 0.00 0.00 0.00 0.01 0.01 0.00 0.00 0.00 0.00 0.00 0.00 0.00 0.00 0.00 0.00 0.00 0.00 0.00 0.00 0.00 0.00 0.00 0.00 0.00 0.00 0.00
0.00 0.00 0.00 0.00 0.00 0.00 0.00 0.00 0.00 0.00 0.00 0.00 0.00 0.00 0.00 0.00 0.00 0.00 0.00 0.00 0.00 0.01 0.00 0.00 0.00 0.00 0.00 0.00 0.00 0.00 0.00 0.00 0.00 0.00 0.00 0.00 0.00 0.00 0.00 0.00 0.00 0.00 0.00 0.00
0.00 0.00 0.00 0.00 0.00 0.00 0.00 0.00 0.00 0.00 0.00 0.00 0.00 0.00 0.00 0.00 0.00 0.00 0.00 0.00 0.00 0.00 0.00 0.00 0.00 0.00 0.00 0.00 0.00 0.00 0.00 0.00 0.00 0.00 0.00 0.00 0.00 0.00 0.00 0.00 0.00 0.00 0.00 0.00
0.00 0.00 0.00 0.00 0.00 0.00 0.00 0.00 0.00 0.00 0.00 0.00 0.00 0.00 0.00 0.00 0.00 0.00 0.00 0.00 0.00 0.00 0.00 0.00 0.00 0.00 0.00 0.00 0.00 0.00 0.00 0.00 0.00 0.00 0.00 0.00 0.00 0.00 0.00 0.00 0.00 0.00 0.00 0.00
0.00 0.00 0.00 0.00 0.00 0.00 0.00 0.00 0.00 0.00 0.00 0.00 0.00 0.00 0.00 0.00 0.00 0.00 0.00 0.00 0.00 0.00 0.00 0.00 0.00 0.00 0.00 0.00 0.00 0.00 0.00 0.00 0.00 0.00 0.00 0.00 0.00 0.00 0.00 0.00 0.00 0.00 0.00 0.00
0.00 0.00 0.00 0.00 0.00 0.00 0.00 0.00 0.00 0.00 0.00 0.00 0.00 0.00 0.00 0.00 0.00 0.00 0.00 0.00 0.00 0.00 0.00 0.00 0.00 0.00 0.00 0.00 0.00 0.00 0.00 0.00 0.00 0.00 0.00 0.00 0.00 0.00 0.00 0.00 0.00 0.00 0.00 0.00
0.00 0.00 0.00 0.00 0.00 0.00 0.00 0.00 0.00 0.00 0.00 0.00 0.00 0.00 0.00 0.00 0.00 0.00 0.00 0.00 0.00 0.00 0.00 0.00 0.00 0.00 0.00 0.00 0.00 0.00 0.00 0.00 0.00 0.00 0.00 0.00 0.00 0.00 0.00 0.00 0.00 0.00 0.00 0.00
0.01 0.00 0.00 0.00 0.00 0.00 0.00 0.00 0.00 0.00 0.00 0.00 0.00 0.00 0.00 0.00 0.00 0.00 0.00 0.00 0.00 0.00 0.00 0.00 0.00 0.00 0.00 0.00 0.00 0.00 0.00 0.00 0.00 0.00 0.00 0.00 0.00 0.00 0.00 0.00 0.00 0.00 0.00 0.00
0.01 0.01 0.01 0.01 0.00 0.00 0.00 0.00 0.00 0.00 0.00 0.00 0.00 0.00 0.00 0.00 0.00 0.00 0.00 0.00 0.00 0.00 0.00 0.00 0.00 0.00 0.00 0.00 0.00 0.00 0.00 0.00 0.00 0.00 0.00 0.00 0.00 0.00 0.00 0.00 0.00 0.00 0.00 0.00
MSLP
1014.12 1014.09 1014.07 1014.04 1013.97 1013.86 1013.68 1013.45 1013.17 1012.90 1012.67 1012.53 1012.53 1012.70 1013.05 1013.54 1014.15 1014.80 1015.44 1015.98 1016.38 1016.60 1016.65 1016.55 1016.34 1016.09 1015.85 1015.70 1015.66 1015.75 1015.98 1016.32 1016.74 1017.20 1017.66 1018.08 1018.47 1018.80 1019.10 1019.37 1019.65 1019.96 1020.30 1020.70
1014.22 1014.07 1013.90 1013.69 1013.45 1013.17 1012.87 1012.58 1012.31 1012.11 1012.02 1012.06 1012.27 1012.63 1013.15 1013.77 1014.46 1015.16 1015.80 1016.33 1016.71 1016.93 1016.99 1016.93 1016.79 1016.62 1016.48 1016.39 1016.41 1016.53 1016.76 1017.07 1017.44 1017.85 1018.26 1018.66 1019.03 1019.38 1019.72 1020.04 1020.38 1020.74 1021.13 1021.55
1014.26 1014.03 1013.74 1013.41 1013.04 1012.66 1012.30 1011.99 1011.77 1011.66 1011.71 1011.91 1012.28 1012.80 1013.44 1014.15 1014.88 1015.57 1016.18 1016.67 1017.02 1017.22 1017.30 1017.28 1017.20 1017.12 1017.06 1017.06 1017.14 1017.30 1017.54 1017.84 1018.19 1018.56 1018.94 1019.32 1019.70 1020.07 1020.43 1020.80 1021.18 1021.58 1021.99 1022.42
1014.24 1013.96 1013.60 1013.20 1012.78 1012.37 1012.01 1011.73 1011.58 1011.58 1011.75 1012.09 1012.58 1013.20 1013.91 1014.64 1015.36 1016.02 1016.57 1017.00 1017.30 1017.48 1017.56 1017.58 1017.57 1017.57 1017.60 1017.68 1017.83 1018.04 1018.31 1018.62 1018.95 1019.31 1019.68 1020.06 1020.44 1020.83 1021.22 1021.62 1022.03 1022.44 1022.85 1023.26
1014.18 1013.86 1013.48 1013.07 1012.66 1012.27 1011.96 1011.76 1011.70 1011.81 1012.08 1012.52 1013.09 1013.76 1014.48 1015.20 1015.87 1016.46 1016.95 1017.31 1017.56 1017.72 1017.81 1017.86 1017.92 1017.99 1018.11 1018.28 1018.50 1018.76 1019.06 1019.39 1019.74 1020.10 1020.46 1020.84 1021.23 1021.62 1022.03 1022.44 1022.86 1023.26 1023.66 1024.03
1014.06 1013.73 1013.36 1012.99 1012.63 1012.32 1012.10 1012.00 1012.05 1012.25 1012.61 1013.11 1013.72 1014.39 1015.09 1015.76 1016.37 1016.88 1017.29 1017.60 1017.81 1017.95 1018.06 1018.16 1018.27 1018.42 1018.62 1018.86 1019.15 1019.46 1019.80 1020.15 1020.51 1020.88 1021.25 1021.63 1022.02 1022.42 1022.83 1023.23 1023.63 1024.02 1024.38 1024.71
1013.91 1013.58 1013.25 1012.94 1012.67 1012.47 1012.37 1012.38 1012.53 1012.82 1013.24 1013.78 1014.39 1015.04 1015.69 1016.30 1016.84 1017.28 1017.63 1017.89 1018.08 1018.23 1018.36 1018.50 1018.67 1018.89 1019.15 1019.45 1019.79 1020.15 1020.53 1020.90 1021.27 1021.65 1022.02 1022.40 1022.78 1023.17 1023.57 1023.95 1024.33 1024.68 1025.00 1025.29
1013.75 1013.43 1013.15 1012.92 1012.76 1012.69 1012.71 1012.84 1013.09 1013.45 1013.92 1014.47 1015.07 1015.68 1016.27 1016.82 1017.29 1017.68 1017.99 1018.22 1018.41 1018.57 1018.73 1018.91 1019.13 1019.40 1019.71 1020.06 1020.44 1020.83 1021.22 1021.61 1021.99 1022.36 1022.74 1023.11 1023.48 1023.86 1024.23 1024.59 1024.93 1025.25 1025.53 1025.78
1013.60 1013.30 1013.09 1012.96 1012.92 1012.97 1013.12 1013.36 1013.69 1014.11 1014.61 1015.15 1015.73 1016.30 1016.84 1017.33 1017.75 1018.11 1018.39 1018.62 1018.81 1019.00 1019.19 1019.41 1019.67 1019.96 1020.31 1020.68 1021.07 1021.47 1021.87 1022.26 1022.64 1023.01 1023.38 1023.74 1024.11 1024.46 1024.81 1025.14 1025.45 1025.74 1025.99 1026.21
1013.49 1013.23 1013.10 1013.07 1013.15 1013.33 1013.59 1013.93 1014.34 1014.80 1015.31 1015.85 1016.39 1016.92 1017.42 1017.87 1018.26 1018.59 1018.87 1019.10 1019.31 1019.52 1019.74 1019.98 1020.25 1020.56 1020.90 1021.27 1021.66 1022.05 1022.45 1022.83 1023.21 1023.58 1023.94 1024.29 1024.64 1024.98 1025.30 1025.61 1025.90 1026.16 1026.40 1026.61
1013.40 1013.21 1013.17 1013.26 1013.46 1013.75 1014.12 1014.55 1015.02 1015.52 1016.03 1016.56 1017.07 1017.57 1018.03 1018.44 1018.81 1019.14 1019.41 1019.66 1019.89 1020.11 1020.33 1020.58 1020.85 1021.15 1021.47 1021.82 1022.19 1022.56 1022.94 1023.31 1023.69 1024.05 1024.40 1024.75 1025.09 1025.42 1025.73 1026.03 1026.30 1026.55 1026.77 1026.98
1013.32 1013.22 1013.28 1013.49 1013.81 1014.22 1014.68 1015.19 1015.71 1016.23 1016.76 1017.27 1017.75 1018.22 1018.64 1019.04 1019.39 1019.71 1019.99 1020.24 1020.47 1020.70 1020.92 1021.16 1021.41 1021.68 1021.98 1022.30 1022.63 1022.98 1023.34 1023.71 1024.07 1024.43 1024.79 1025.14 1025.47 1025.80 1026.10 1026.39 1026.66 1026.90 1027.13 1027.34
1013.19 1013.20 1013.38 1013.71 1014.15 1014.67 1015.23 1015.80 1016.36 1016.91 1017.43 1017.93 1018.39 1018.82 1019.22 1019.60 1019.94 1020.25 1020.53 1020.78 1021.01 1021.23 1021.44 1021.66 1021.88 1022.12 1022.39 1022.67 1022.98 1023.31 1023.66 1024.02 1024.39 1024.76 1025.12 1025.47 1025.81 1026.13 1026.44 1026.72 1026.98 1027.23 1027.46 1027.67
1012.94 1013.08 1013.39 1013.85 1014.41 1015.03 1015.67 1016.31 1016.91 1017.47 1018.00 1018.47 1018.91 1019.32 1019.70 1020.05 1020.38 1020.68 1020.95 1021.20 1021.43 1021.64 1021.83 1022.03 1022.23 1022.45 1022.68 1022.95 1023.24 1023.57 1023.91 1024.28 1024.65 1025.03 1025.40 1025.76 1026.11 1026.43 1026.73 1027.01 1027.27 1027.51 1027.74 1027.95
1012.55 1012.82 1013.27 1013.85 1014.53 1015.24 1015.96 1016.64 1017.28 1017.86 1018.38 1018.85 1019.27 1019.65 1020.01 1020.34 1020.66 1020.95 1021.21 1021.46 1021.68 1021.88 1022.07 1022.25 1022.44 1022.65 1022.87 1023.14 1023.43 1023.75 1024.11 1024.49 1024.88 1025.27 1025.65 1026.02 1026.37 1026.69 1026.99 1027.26 1027.51 1027.74 1027.96 1028.16
1012.00 1012.40 1012.97 1013.67 1014.45 1015.25 1016.03 1016.77 1017.44 1018.03 1018.55 1019.01 1019.41 1019.78 1020.12 1020.44 1020.74 1021.02 1021.28 1021.52 1021.75 1021.95 1022.14 1022.33 1022.53 1022.74 1022.98 1023.25 1023.56 1023.90 1024.27 1024.67 1025.07 1025.47 1025.87 1026.23 1026.58 1026.89 1027.18 1027.43 1027.67 1027.89 1028.09 1028.28
1011.33 1011.84 1012.52 1013.33 1014.19 1015.06 1015.90 1016.67 1017.37 1017.97 1018.50 1018.95 1019.35 1019.70 1020.03 1020.34 1020.63 1020.91 1021.18 1021.43 1021.66 1021.88 1022.09 1022.30 1022.52 1022.76 1023.03 1023.32 1023.66 1024.02 1024.41 1024.82 1025.23 1025.64 1026.03 1026.39 1026.72 1027.02 1027.28 1027.52 1027.74 1027.94 1028.12 1028.29
1010.61 1011.21 1011.98 1012.86 1013.79 1014.72 1015.60 1016.41 1017.12 1017.74 1018.27 1018.73 1019.12 1019.47 1019.80 1020.11 1020.40 1020.69 1020.97 1021.23 1021.49 1021.74 1021.98 1022.23 1022.48 1022.75 1023.05 1023.38 1023.74 1024.12 1024.52 1024.94 1025.35 1025.74 1026.12 1026.46 1026.77 1027.04 1027.28 1027.49 1027.69 1027.87 1028.03 1028.18
1009.92 1010.60 1011.43 1012.36 1013.33 1014.30 1015.21 1016.03 1016.77 1017.40 1017.95 1018.41 1018.81 1019.17 1019.50 1019.82 1020.13 1020.43 1020.73 1021.02 1021.31 1021.59 1021.87 1022.15 1022.45 1022.75 1023.08 1023.44 1023.81 1024.20 1024.60 1025.00 1025.39 1025.76 1026.11 1026.42 1026.69 1026.94 1027.15 1027.34 1027.51 1027.67 1027.82 1027.96
1009.38 1010.09 1010.95 1011.91 1012.90 1013.87 1014.80 1015.64 1016.39 1017.03 1017.59 1018.07 1018.49 1018.87 1019.22 1019.56 1019.88 1020.21 1020.53 1020.86 1021.17 1021.49 1021.81 1022.13 1022.46 1022.79 1023.14 1023.50 1023.88 1024.26 1024.63 1025.01 1025.36 1025.69 1025.99 1026.26 1026.50 1026.71 1026.89 1027.06 1027.22 1027.37 1027.51 1027.64
1009.01 1009.74 1010.60 1011.55 1012.54 1013.51 1014.43 1015.28 1016.03 1016.69 1017.27 1017.78 1018.22 1018.62 1019.00 1019.36 1019.72 1020.07 1020.42 1020.77 1021.12 1021.47 1021.82 1022.17 1022.51 1022.87 1023.22 1023.57 1023.93 1024.28 1024.62 1024.94 1025.24 1025.51 1025.76 1025.98 1026.18 1026.36 1026.52 1026.68 1026.83 1026.98 1027.12 1027.25
1008.86 1009.57 1010.40 1011.32 1012.28 1013.22 1014.13 1014.96 1015.72 1016.40 1017.00 1017.53 1018.01 1018.44 1018.85 1019.25 1019.63 1020.02 1020.40 1020.77 1021.15 1021.52 1021.89 1022.25 1022.61 1022.96 1023.30 1023.63 1023.95 1024.25 1024.54 1024.80 1025.04 1025.25 1025.44 1025.61 1025.77 1025.92 1026.07 1026.22 1026.36 1026.51 1026.66 1026.80
1008.89 1009.55 1010.33 1011.19 1012.09 1012.99 1013.87 1014.69 1015.44 1016.13 1016.75 1017.31 1017.82 1018.30 1018.75 1019.17 1019.59 1020.00 1020.41 1020.81 1021.20 1021.59 1021.97 1022.33 1022.69 1023.03 1023.35 1023.65 1023.92 1024.18 1024.40 1024.60 1024.77 1024.92 1025.06 1025.18 1025.31 1025.43 1025.56 1025.70 1025.85 1026.01 1026.16 1026.31
1009.03 1009.63 1010.33 1011.11 1011.94 1012.78 1013.61 1014.40 1015.15 1015.84 1016.49 1017.08 1017.63 1018.14 1018.62 1019.09 1019.53 1019.97 1020.39 1020.81 1021.22 1021.61 1021.99 1022.36 1022.70 1023.03 1023.32 1023.59 1023.83 1024.03 1024.20 1024.35 1024.46 1024.56 1024.64 1024.72 1024.81 1024.91 1025.02 1025.16 1025.31 1025.47 1025.63 1025.79
1009.23 1009.73 1010.34 1011.03 1011.77 1012.54 1013.32 1014.07 1014.81 1015.51 1016.17 1016.79 1017.37 1017.92 1018.43 1018.93 1019.40 1019.86 1020.29 1020.72 1021.13 1021.53 1021.91 1022.27 1022.60 1022.92 1023.20 1023.44 1023.65 1023.82 1023.95 1024.05 1024.12 1024.17 1024.21 1024.26 1024.31 1024.39 1024.48 1024.60 1024.75 1024.90 1025.07 1025.23
1009.40 1009.80 1010.31 1010.90 1011.55 1012.24 1012.96 1013.68 1014.40 1015.10 1015.77 1016.42 1017.03 1017.61 1018.15 1018.67 1019.15 1019.62 1020.06 1020.49 1020.90 1021.29 1021.67 1022.02 1022.36 1022.66 1022.94 1023.17 1023.36 1023.51 1023.63 1023.70 1023.74 1023.76 1023.78 1023.79 1023.82 1023.86 1023.94 1024.04 1024.16 1024.31 1024.47 1024.62
1009.48 1009.78 1010.18 1010.67 1011.24 1011.87 1012.53 1013.22 1013.93 1014.63 1015.31 1015.98 1016.61 1017.21 1017.77 1018.29 1018.79 1019.25 1019.69 1020.10 1020.50 1020.89 1021.26 1021.61 1021.94 1022.25 1022.53 1022.76 1022.96 1023.11 1023.22 1023.29 1023.32 1023.33 1023.32 1023.31 1023.31 1023.33 1023.37 1023.45 1023.55 1023.67 1023.81 1023.95
Thickness
5644 5650 5650 5650 5650 5647 5638 5634 5627 5634 5633 5635 5628 5619 5609 5599 5591 5584 5578 5572 5567 5563 5559 5557 5557 5557 5558 5558 5558 5560 5561 5562 5563 5563 5564 5565 5566 5566 5567 5568 5569 5570 5572 5573
5641 5649 5648 5647 5651 5649 5645 5643 5637 5635 5633 5629 5621 5612 5602 5593 5585 5578 5571 5565 5560 5555 5552 5549 5547 5547 5548 5547 5548 5550 5551 5552 5552 5553 5554 5554 5555 5555 5556 5556 5557 5559 5560 5561
5627 5637 5642 5637 5648 5648 5646 5646 5640 5633 5631 5620 5613 5605 5596 5587 5579 5572 5564 5558 5552 5547 5544 5541 5539 5538 5538 5538 5539 5540 5541 5543 5543 5544 5544 5544 5544 5544 5544 5545 5546 5546 5547 5549
5618 5627 5626 5640 5653 5652 5646 5642 5640 5634 5624 5617 5609 5597 5587 5579 5572 5564 5557 5550 5544 5539 5535 5533 5531 5530 5530 5530 5531 5532 5533 5534 5534 5534 5534 5534 5534 5533 5534 5535 5535 5535 5536 5538
5611 5616 5624 5641 5649 5647 5641 5638 5636 5626 5616 5605 5596 5587 5577 5570 5564 5556 5549 5542 5536 5531 5528 5525 5524 5522 5522 5522 5523 5524 5525 5525 5525 5526 5526 5525 5524 5524 5524 5525 5525 5525 5527 5528
5611 5616 5618 5634 5647 5650 5642 5630 5630 5622 5610 5600 5593 5584 5574 5562 5555 5547 5540 5534 5529 5524 5521 5518 5517 5516 5516 5515 5516 5516 5517 5517 5517 5517 5517 5516 5516 5515 5516 5517 5517 5518 5518 5519
5611 5612 5621 5638 5644 5645 5626 5624 5626 5617 5607 5597 5589 5581 5569 5557 5548 5540 5533 5527 5522 5519 5515 5513 5511 5511 5510 5509 5509 5509 5510 5510 5510 5510 5509 5509 5509 5509 5509 5510 5510 5510 5510 5510
5609 5610 5618 5637 5638 5632 5626 5625 5619 5610 5600 5590 5580 5570 5561 5551 5542 5534 5527 5521 5517 5513 5510 5508 5507 5506 5505 5504 5503 5503 5504 5503 5503 5503 5503 5503 5503 5503 5503 5503 5503 5502 5502 5501
5614 5618 5628 5630 5631 5629 5625 5619 5613 5604 5593 5584 5573 5563 5554 5545 5536 5529 5522 5517 5512 5508 5505 5503 5502 5502 5501 5499 5499 5498 5498 5497 5497 5497 5497 5498 5498 5497 5496 5496 5497 5496 5496 5495
5617 5625 5627 5628 5628 5625 5622 5616 5609 5600 5589 5580 5569 5559 5549 5540 5531 5524 5517 5512 5508 5505 5501 5498 5498 5497 5497 5496 5496 5495 5493 5492 5492 5492 5492 5492 5492 5492 5492 5491 5491 5491 5490 5489
5618 5624 5626 5627 5623 5620 5615 5610 5602 5593 5584 5575 5565 5554 5545 5536 5527 5520 5514 5509 5505 5502 5498 5496 5494 5494 5494 5493 5493 5491 5489 5488 5487 5487 5487 5486 5486 5486 5487 5487 5488 5488 5486 5485
5620 5626 5622 5621 5619 5616 5611 5604 5597 5588 5577 5568 5561 5551 5542 5532 5524 5518 5512 5507 5503 5500 5497 5494 5493 5492 5491 5490 5490 5488 5486 5484 5483 5483 5483 5483 5483 5482 5482 5484 5484 5484 5483 5482
5625 5626 5623 5620 5616 5612 5606 5599 5592 5585 5575 5565 5556 5548 5539 5530 5522 5516 5511 5507 5503 5500 5497 5494 5492 5491 5490 5489 5488 5487 5485 5483 5482 5481 5481 5481 5481 5482 5480 5479 5480 5480 5479 5479
5626 5624 5619 5616 5611 5607 5602 5595 5587 5578 5570 5563 5554 5545 5537 5529 5522 5516 5511 5507 5504 5500 5497 5495 5493 5491 5490 5489 5487 5486 5484 5483 5482 5481 5480 5480 5479 5479 5479 5479 5478 5476 5476 5477
5625 5624 5620 5615 5608 5602 5597 5590 5582 5573 5565 5557 5551 5544 5537 5530 5523 5517 5512 5508 5504 5501 5498 5496 5494 5492 5491 5489 5488 5486 5485 5483 5482 5481 5480 5479 5479 5478 5478 5478 5477 5476 5476 5475
5621 5619 5616 5611 5605 5599 5594 5588 5580 5571 5564 5557 5550 5544 5538 5531 5525 5519 5514 5510 5506 5502 5500 5497 5495 5493 5492 5491 5489 5486 5485 5484 5483 5482 5481 5480 5479 5479 5478 5478 5477 5477 5477 5476
5618 5614 5611 5607 5603 5598 5594 5589 5582 5574 5567 5559 5552 5545 5539 5532 5526 5520 5516 5512 5509 5505 5502 5500 5497 5496 5494 5493 5490 5488 5487 5486 5485 5484 5483 5482 5482 5481 5480 5480 5479 5479 5479 5478
5625 5621 5617 5613 5606 5600 5595 5590 5584 5577 5570 5563 5555 5548 5541 5535 5529 5523 5519 5514 5510 5507 5504 5503 5501 5499 5497 5495 5493 5491 5490 5488 5487 5487 5486 5485 5485 5484 5484 5483 5483 5483 5482 5482
5624 5620 5617 5613 5608 5602 5597 5591 5585 5579 5573 5566 5559 5551 5545 5540 5534 5528 5523 5518 5514 5511 5508 5506 5504 5502 5500 5498 5497 5495 5493 5492 5491 5490 5490 5489 5489 5488 5488 5487 5487 5487 5486 5486
5624 5621 5617 5613 5608 5603 5598 5593 5587 5581 5575 5569 5562 5555 5548 5543 5538 5532 5527 5523 5521 5518 5515 5511 5509 5506 5504 5503 5501 5499 5498 5497 5496 5495 5494 5494 5493 5493 5492 5492 5492 5492 5491 5491
5622 5620 5617 5613 5609 5605 5601 5596 5590 5584 5578 5573 5566 5560 5554 5548 5543 5537 5532 5528 5525 5523 5520 5517 5514 5512 5510 5508 5506 5504 5503 5502 5502 5501 5500 5499 5499 5498 5498 5498 5497 5497 5497 5496
5621 5620 5618 5614 5610 5605 5601 5597 5593 5588 5582 5576 5571 5565 5558 5552 5547 5543 5540 5537 5533 5529 5526 5523 5521 5519 5517 5514 5512 5511 5510 5509 5508 5507 5506 5506 5505 5505 5504 5504 5503 5503 5502 5502
5620 5620 5618 5615 5611 5607 5602 5599 5595 5591 5586 5581 5576 5570 5564 5559 5554 5550 5545 5543 5540 5536 5533 5531 5528 5526 5523 5521 5519 5518 5517 5516 5516 5515 5514 5514 5513 5512 5512 5511 5510 5509 5509 5508
5619 5619 5617 5615 5611 5607 5603 5600 5597 5594 5590 5586 5582 5577 5571 5565 5560 5558 5556 5552 5548 5544 5541 5539 5536 5533 5530 5528 5526 5525 5524 5524 5523 5522 5522 5521 5520 5519 5519 5518 5517 5516 5515 5514
5618 5618 5616 5614 5611 5609 5606 5602 5598 5595 5592 5588 5585 5581 5578 5574 5570 5566 5561 5558 5555 5551 5548 5546 5543 5540 5537 5535 5534 5532 5532 5531 5530 5530 5529 5528 5528 5527 5526 5525 5524 5523 5522 5521
5617 5617 5617 5616 5615 5612 5608 5605 5601 5598 5595 5591 5588 5585 5582 5579 5576 5572 5568 5565 5562 5558 5556 5553 5550 5547 5545 5543 5542 5541 5540 5539 5538 5537 5536 5536 5535 5534 5534 5533 5532 5531 5530 5529
5615 5615 5614 5614 5614 5613 5611 5608 5605 5603 5601 5598 5594 5591 5587 5584 5581 5577 5574 5571 5568 5565 5562 5560 5558 5555 5553 5551 5550 5549 5547 5546 5546 5545 5544 5543 5543 5542 5542 5541 5540 5539 5537 5536